Orbital Elements at Epoch 2459200.5 (2020-Dec-17.0) TDB
Reference: JPL 21 (heliocentric ecliptic J2000)
Element | Value | Uncertainty (1-sigma) | Units |
e | .1467339877134532 | 4.4296e-08 | |
a | 2.567910256555843 | 1.3811e-08 | au |
q | 2.191110544521127 | 1.1675e-07 | au |
i | 5.530659566994217 | 3.0263e-06 | deg |
node | 105.8588152238877 | 5.7607e-05 | deg |
peri | 228.5152809174548 | 6.02e-05 | deg |
M | 40.51788278637544 | 1.6539e-05 | deg |
tp | 2459031.334252266013 (2020-Jun-30.83425227) | 6.9602e-05 | TDB |
period | 1503.031871268298 4.12 | 1.2126e-05 3.32e-08 | d yr |
n | .2395158791251862 | 1.9323e-09 | deg/d |
Q | 2.944709968590558 | 1.5838e-08 | au |
|
| | Orbit Determination Parameters
Additional Information
|